loading
|
DECAYED
Showing default

GEARRS-3, 51097 (Decayed)

Orbit data source: Space-Track

GEARRS-3, 51097 was an American payload satellite in LEO that was launched on Thu, 13 Jan 2022 UTC via an LAUNCHERONE launch vehicle from the Pegasus Launch, Western Range Air Space (WRAS). Payloads include a variety of satellites, spacecraft, and rockets equipped with specific instruments for various scientific and technological missions. These include communications satellites like Starlink; space stations such as the ISS; scientific satellites like the Hubble; Earth observation satellites from companies like Planet Labs, Umbra, and HawkEye 360; GPS; miniature CubeSats for education and research; and military/defense satellites.

Next visibility unknown
No 3D visualization available: RSO Decayed
GEARRS-3 details
Identifier
51097, 2022-003D
Orbit
Decayed
Last TLE update1 month ago
Origin
Flag of USNSL/AFRL (US)
ManufacturerNearSpaceLaunch
Mission statusDecayed
MissionCommercial Communications
Bus & MotorCUBESAT 3U, Unknown motor
Mass4 kg wet, 4 kg dry
Launch date (UTC)
2022-01-13 (3 years ago)
Launch vehicle
LAUNCHERONE
Launch site
Pegasus Launch, Western Range Air Space (WRAS)
Object type
Payload
Rocket body
Debris
Radar Cross SectionSmall (<0.1 m²)

Expand to show TLE details & history

TLE from 1 month ago
0 GEARRS-3
1 51097U 22003D   24220.71171408  .13367639  10692-4  32982-3 0  9995
2 51097  44.9127  23.7043 0008286 294.0535  65.9524 16.45547106144304
Epoch: 2024-08-07T17:04Z
Definitive object data (Epoch: 2024-08-07T17:04:52.096Z)
Latitude-0.00003°
Longitude170.7763°
Altitude148.876 km
Speed7.82 km/s
True Right ascension01h 34m 49s
True Declination0° 00' 00"
Sunlit
Object was in full shadow at TLE epoch
Predictive object data (real-time)
LatitudeUnknown
LongitudeUnknown
AltitudeUnknown
SpeedUnknown
Apparent Right ascensionUnknown
Apparent DeclinationUnknown
SunlitUnknown
Predictive observer data (real-time)
Local Sidereal Time23:03:04
AzimuthUnknown
ElevationUnknown
Doppler factorUnknown
Orbital elements
Apogee158.206 km
Perigee147.382 km
Semi-major axis6,530.931 km
Eccentricity0.0008286
Inclination44.9127°
RAAN23.7043°
Arg. of periapsis294.0535°
True anomaly66.03915°
Mean anomaly65.9524°
Eccentric anomaly65.99577°
Mean motion4.11226 °/min
BSTAR0.00032982
Period87.54 mins
No data available

GEARRS-3 Visibility forecast

Observer location: 39.9160978°, -105.1181434

This satellite is decayed
Span
Click to sort rows by Start time (UTC) header in descending order
Start Az.
Max El. time (UTC)
Max El. Az.
Max El.
End time (UTC)
End Az.